Location: Narragansett
(41.4496°N, 71.4488°W)
Time: 11:51:03
(UTC+00:00)

X-37B - Visible Passes

Search period start: 29 November 2022 00:00
Search period end: 09 December 2022 00:00
Orbit: 277 x 277 km, 45.0° (Epoch: 01 November)

Date Brightness Start Highest point End Pass type
(mag) Time Alt. Az. Time Alt. Az. Time Alt. Az.
06 Dec 3.6 23:31:53 10° WSW 23:32:02 11° WSW 23:32:02 11° WSW visible
07 Dec 2.1 21:59:19 10° S 22:01:01 17° SE 22:02:44 10° ESE visible
07 Dec 3.7 23:32:33 10° WSW 23:32:48 12° WSW 23:32:48 12° WSW visible
08 Dec 1.2 21:59:23 10° SW 22:01:35 30° SSE 22:03:29 12° E visible
08 Dec 3.7 23:33:20 10° W 23:33:32 11° W 23:33:32 11° W visible
